N79JW KPVD-KDET

Flight info

Callsign N79JW
Flight time 1h 38m
Altitude 40000
Route PUT CTR CAM Q822 GONZZ COLTS GIGGY2
Aircraft CRJ7/M-SDFGIRWY/S

Departure

Time 2026-05-07 18:27
Airport Rhode Island T. F. Green International Airport (KPVD)

Arrival

Time 2026-05-07 20:05
Airport Coleman A. Young Municipal Airport (KDET)
Time Latitude Longitude Altitude Speed Heading
2026-05-07 17:59 41.73209 -71.42766 55 ft 0 kts 358°
2026-05-07 18:13 41.73206 -71.42765 58 ft 3 kts 360°
2026-05-07 18:13 41.73183 -71.42775 53 ft 4 kts 42°
2026-05-07 18:13 41.73172 -71.42805 57 ft 4 kts 85°
2026-05-07 18:13 41.73172 -71.42812 57 ft 1 kts 88°
2026-05-07 18:17 41.73172 -71.42802 57 ft 4 kts 87°
2026-05-07 18:17 41.73175 -71.42719 54 ft 12 kts 87°
2026-05-07 18:17 41.73178 -71.42594 57 ft 15 kts 85°
2026-05-07 18:17 41.73178 -71.42439 55 ft 18 kts 101°
2026-05-07 18:18 41.73113 -71.42278 50 ft 20 kts 140°
2026-05-07 18:18 41.73020 -71.42294 50 ft 15 kts 210°
2026-05-07 18:18 41.72925 -71.42374 50 ft 17 kts 211°
2026-05-07 18:18 41.72816 -71.42468 47 ft 20 kts 212°
2026-05-07 18:19 41.72698 -71.42541 49 ft 18 kts 200°
2026-05-07 18:19 41.72620 -71.42626 49 ft 14 kts 213°
2026-05-07 18:19 41.72540 -71.42689 49 ft 13 kts 199°
2026-05-07 18:19 41.72480 -71.42729 50 ft 2 kts 186°
2026-05-07 18:20 41.72478 -71.42728 52 ft 0 kts 154°
2026-05-07 18:20 41.72476 -71.42724 52 ft 0 kts 123°
2026-05-07 18:22 41.72474 -71.42720 52 ft 3 kts 122°
2026-05-07 18:22 41.72468 -71.42707 49 ft 6 kts 122°
2026-05-07 18:22 41.72349 -71.42538 50 ft 21 kts 142°
2026-05-07 18:22 41.72234 -71.42413 52 ft 21 kts 135°
2026-05-07 18:23 41.72128 -71.42261 52 ft 24 kts 142°
2026-05-07 18:23 41.71989 -71.42116 51 ft 27 kts 142°
2026-05-07 18:23 41.71882 -71.42003 47 ft 6 kts 141°
2026-05-07 18:23 41.71872 -71.41992 48 ft 0 kts 140°
2026-05-07 18:25 41.71865 -71.41984 48 ft 5 kts 139°
2026-05-07 18:25 41.71833 -71.41922 47 ft 9 kts 88°
2026-05-07 18:25 41.71875 -71.41855 48 ft 2 kts 346°
2026-05-07 18:26 41.71950 -71.41930 44 ft 35 kts 321°
2026-05-07 18:26 41.72161 -71.42156 50 ft 80 kts 322°
2026-05-07 18:26 41.72758 -71.42783 66 ft 133 kts 322°
2026-05-07 18:26 41.73468 -71.43585 633 ft 131 kts 319°
2026-05-07 18:27 41.74210 -71.44375 1142 ft 145 kts 321°
2026-05-07 18:27 41.75019 -71.45199 1641 ft 158 kts 323°
2026-05-07 18:27 41.76011 -71.46191 2055 ft 193 kts 322°
2026-05-07 18:27 41.77220 -71.47376 2425 ft 232 kts 323°
2026-05-07 18:28 41.78578 -71.48680 3221 ft 250 kts 323°
2026-05-07 18:28 41.80000 -71.50027 3682 ft 252 kts 323°
2026-05-07 18:28 41.81433 -71.51387 3873 ft 252 kts 323°
2026-05-07 18:28 41.82855 -71.52741 3961 ft 250 kts 323°
2026-05-07 18:29 41.84268 -71.54065 3981 ft 251 kts 323°
2026-05-07 18:29 41.85684 -71.55398 3999 ft 253 kts 323°
2026-05-07 18:29 41.87134 -71.56760 4347 ft 254 kts 323°
2026-05-07 18:29 41.88579 -71.58121 5341 ft 254 kts 323°
2026-05-07 18:30 41.90040 -71.59497 6368 ft 259 kts 323°
2026-05-07 18:30 41.91374 -71.61117 7318 ft 261 kts 301°
2026-05-07 18:30 41.92061 -71.63378 8292 ft 264 kts 288°
2026-05-07 18:30 41.92600 -71.65753 9220 ft 268 kts 286°
2026-05-07 18:31 41.93134 -71.68162 10181 ft 270 kts 285°
2026-05-07 18:31 41.93692 -71.70582 11028 ft 278 kts 284°
2026-05-07 18:31 41.94313 -71.73105 11753 ft 285 kts 284°
2026-05-07 18:31 41.94958 -71.75620 12726 ft 285 kts 283°
2026-05-07 18:32 41.95616 -71.78130 13645 ft 286 kts 283°
2026-05-07 18:32 41.96272 -71.80627 14494 ft 288 kts 282°
2026-05-07 18:32 41.96938 -71.83178 15290 ft 291 kts 282°
2026-05-07 18:32 41.97603 -71.85761 16058 ft 293 kts 282°
2026-05-07 18:33 41.98270 -71.88364 16799 ft 296 kts 282°
2026-05-07 18:33 41.98928 -71.90938 17517 ft 298 kts 281°
2026-05-07 18:33 41.99606 -71.93584 18222 ft 301 kts 281°
2026-05-07 18:33 42.00285 -71.96250 18928 ft 302 kts 281°
2026-05-07 18:34 42.00963 -71.98885 19644 ft 302 kts 281°
2026-05-07 18:34 42.01657 -72.01553 20359 ft 302 kts 280°
2026-05-07 18:34 42.02343 -72.04214 21043 ft 301 kts 280°
2026-05-07 18:34 42.03035 -72.06874 21679 ft 302 kts 279°
2026-05-07 18:35 42.03719 -72.09498 22326 ft 301 kts 279°
2026-05-07 18:35 42.04424 -72.12185 22919 ft 301 kts 279°
2026-05-07 18:35 42.05103 -72.14817 23490 ft 301 kts 278°
2026-05-07 18:35 42.05787 -72.17479 24043 ft 301 kts 278°
2026-05-07 18:36 42.06465 -72.20148 24580 ft 301 kts 278°
2026-05-07 18:36 42.07149 -72.22827 25075 ft 303 kts 277°
2026-05-07 18:36 42.07806 -72.25414 25565 ft 303 kts 277°
2026-05-07 18:36 42.08493 -72.28102 26024 ft 304 kts 277°
2026-05-07 18:37 42.09190 -72.30802 26427 ft 306 kts 277°
2026-05-07 18:37 42.09877 -72.33515 26799 ft 306 kts 276°
2026-05-07 18:37 42.10564 -72.36235 27169 ft 306 kts 276°
2026-05-07 18:37 42.11237 -72.38959 27554 ft 307 kts 276°
2026-05-07 18:38 42.11920 -72.41700 27924 ft 309 kts 276°
2026-05-07 18:38 42.12611 -72.44450 28275 ft 311 kts 276°
2026-05-07 18:38 42.13297 -72.47209 28628 ft 311 kts 276°
2026-05-07 18:38 42.13981 -72.49983 28948 ft 312 kts 275°
2026-05-07 18:39 42.14666 -72.52764 29278 ft 313 kts 275°
2026-05-07 18:39 42.15361 -72.55555 29592 ft 315 kts 275°
2026-05-07 18:39 42.16063 -72.58373 29851 ft 316 kts 275°
2026-05-07 18:39 42.16749 -72.61119 30222 ft 315 kts 275°
2026-05-07 18:40 42.17441 -72.63876 30555 ft 314 kts 275°
2026-05-07 18:40 42.18144 -72.66697 30881 ft 313 kts 275°
2026-05-07 18:40 42.18831 -72.69483 31181 ft 313 kts 275°
2026-05-07 18:40 42.19505 -72.72228 31516 ft 312 kts 275°
2026-05-07 18:41 42.20186 -72.74999 31808 ft 312 kts 275°
2026-05-07 18:41 42.20872 -72.77788 32050 ft 312 kts 275°
2026-05-07 18:41 42.21549 -72.80561 32385 ft 310 kts 275°
2026-05-07 18:41 42.22227 -72.83323 32637 ft 311 kts 275°
2026-05-07 18:42 42.22908 -72.86083 32957 ft 310 kts 275°
2026-05-07 18:42 42.23583 -72.88841 33236 ft 309 kts 275°
2026-05-07 18:42 42.24252 -72.91583 33532 ft 307 kts 275°
2026-05-07 18:42 42.24925 -72.94316 33745 ft 306 kts 275°
2026-05-07 18:43 42.25608 -72.96967 34023 ft 304 kts 276°
2026-05-07 18:43 42.26274 -72.99655 34324 ft 300 kts 275°
2026-05-07 18:43 42.26923 -73.02332 34580 ft 298 kts 275°
2026-05-07 18:43 42.27512 -73.04971 34730 ft 299 kts 274°
2026-05-07 18:44 42.28099 -73.07669 34928 ft 300 kts 274°
2026-05-07 18:44 42.28720 -73.10362 35119 ft 302 kts 275°
2026-05-07 18:44 42.29375 -73.13056 35317 ft 302 kts 275°
2026-05-07 18:44 42.30018 -73.15726 35495 ft 303 kts 275°
2026-05-07 18:45 42.30672 -73.18433 35712 ft 304 kts 276°
2026-05-07 18:45 42.31325 -73.21147 35935 ft 304 kts 275°
2026-05-07 18:45 42.31981 -73.23869 36100 ft 305 kts 276°
2026-05-07 18:45 42.32638 -73.26599 36257 ft 306 kts 276°
2026-05-07 18:46 42.33296 -73.29339 36374 ft 307 kts 276°
2026-05-07 18:46 42.33942 -73.32030 36499 ft 309 kts 276°
2026-05-07 18:46 42.34605 -73.34798 36593 ft 311 kts 276°
2026-05-07 18:46 42.35294 -73.37570 36749 ft 312 kts 276°
2026-05-07 18:47 42.35969 -73.40348 36873 ft 311 kts 276°
2026-05-07 18:47 42.36639 -73.43135 37010 ft 312 kts 276°
2026-05-07 18:47 42.37303 -73.45927 37130 ft 312 kts 276°
2026-05-07 18:48 42.38608 -73.51521 37318 ft 312 kts 276°
2026-05-07 18:48 42.39272 -73.54314 37458 ft 312 kts 276°
2026-05-07 18:48 42.39934 -73.57111 37591 ft 312 kts 276°
2026-05-07 18:48 42.40597 -73.59900 37775 ft 311 kts 276°
2026-05-07 18:49 42.41251 -73.62649 37952 ft 310 kts 276°
2026-05-07 18:49 42.41896 -73.65383 38127 ft 309 kts 276°
2026-05-07 18:49 42.42544 -73.68114 38299 ft 307 kts 276°
2026-05-07 18:49 42.43192 -73.70861 38474 ft 306 kts 276°
2026-05-07 18:50 42.43846 -73.73636 38639 ft 304 kts 276°
2026-05-07 18:50 42.44490 -73.76361 38782 ft 304 kts 276°
2026-05-07 18:50 42.45123 -73.79062 38902 ft 304 kts 276°
2026-05-07 18:50 42.45765 -73.81788 39021 ft 304 kts 276°
2026-05-07 18:51 42.46404 -73.84508 39145 ft 303 kts 276°
2026-05-07 18:51 42.47039 -73.87223 39265 ft 302 kts 276°
2026-05-07 18:51 42.47675 -73.89937 39392 ft 302 kts 276°
2026-05-07 18:51 42.48309 -73.92642 39511 ft 302 kts 276°
2026-05-07 18:52 42.48943 -73.95357 39583 ft 302 kts 276°
2026-05-07 18:52 42.50204 -74.00775 39719 ft 304 kts 277°
2026-05-07 18:53 42.51470 -74.06225 39849 ft 306 kts 277°
2026-05-07 18:53 42.52758 -74.11770 39890 ft 310 kts 277°
2026-05-07 18:54 42.54047 -74.17390 39903 ft 319 kts 277°
2026-05-07 18:54 42.55390 -74.23217 39909 ft 328 kts 277°
2026-05-07 18:55 42.56765 -74.29192 39915 ft 336 kts 277°
2026-05-07 18:55 42.58161 -74.35282 39925 ft 345 kts 278°
2026-05-07 18:56 42.59605 -74.41558 39921 ft 354 kts 278°
2026-05-07 18:56 42.61066 -74.47983 39921 ft 363 kts 278°
2026-05-07 18:57 42.62569 -74.54576 39905 ft 367 kts 278°
2026-05-07 18:57 42.64093 -74.61239 39897 ft 372 kts 278°
2026-05-07 18:58 42.65640 -74.67978 39911 ft 375 kts 278°
2026-05-07 18:58 42.67165 -74.74711 39912 ft 379 kts 279°
2026-05-07 18:59 42.68724 -74.81591 39914 ft 383 kts 279°
2026-05-07 18:59 42.70292 -74.88559 39907 ft 387 kts 279°
2026-05-07 19:00 42.71864 -74.95586 39910 ft 390 kts 279°
2026-05-07 19:00 42.73424 -75.02626 39906 ft 392 kts 279°
2026-05-07 19:01 42.74993 -75.09659 39913 ft 394 kts 279°
2026-05-07 19:01 42.76578 -75.16815 39922 ft 396 kts 279°
2026-05-07 19:02 42.78165 -75.24010 39922 ft 398 kts 279°
2026-05-07 19:02 42.79743 -75.31179 39918 ft 399 kts 279°
2026-05-07 19:03 42.81334 -75.38432 39909 ft 400 kts 279°
2026-05-07 19:03 42.82901 -75.45603 39914 ft 401 kts 279°
2026-05-07 19:04 42.84493 -75.52896 39920 ft 402 kts 279°
2026-05-07 19:04 42.86079 -75.60205 39919 ft 403 kts 279°
2026-05-07 19:05 42.87663 -75.67533 39918 ft 403 kts 279°
2026-05-07 19:05 42.89245 -75.74876 39920 ft 404 kts 279°
2026-05-07 19:06 42.90797 -75.82104 39926 ft 405 kts 279°
2026-05-07 19:06 42.93167 -75.93172 39920 ft 405 kts 279°
2026-05-07 19:07 42.94742 -76.00564 39918 ft 406 kts 279°
2026-05-07 19:07 42.96304 -76.07976 39922 ft 407 kts 279°
2026-05-07 19:08 42.97854 -76.15320 39926 ft 407 kts 279°
2026-05-07 19:08 42.99424 -76.22760 39922 ft 408 kts 279°
2026-05-07 19:09 43.00990 -76.30216 39921 ft 409 kts 279°
2026-05-07 19:09 43.02557 -76.37704 39924 ft 410 kts 279°
2026-05-07 19:10 43.04121 -76.45203 39920 ft 410 kts 279°
2026-05-07 19:10 43.05651 -76.52564 39926 ft 411 kts 279°
2026-05-07 19:11 43.07206 -76.60084 39923 ft 412 kts 279°
2026-05-07 19:11 43.08589 -76.67660 39928 ft 406 kts 271°
2026-05-07 19:12 43.08836 -76.75332 39940 ft 402 kts 264°
2026-05-07 19:12 43.08484 -76.82897 39939 ft 402 kts 262°
2026-05-07 19:13 43.08113 -76.90518 39941 ft 401 kts 263°
2026-05-07 19:13 43.07819 -76.98127 39945 ft 400 kts 263°
2026-05-07 19:14 43.07522 -77.05730 39944 ft 400 kts 263°
2026-05-07 19:14 43.07219 -77.13327 39943 ft 399 kts 263°
2026-05-07 19:15 43.06968 -77.19567 39944 ft 399 kts 263°
2026-05-07 19:15 43.06658 -77.27143 39938 ft 399 kts 263°
2026-05-07 19:16 43.06342 -77.34725 39935 ft 399 kts 263°
2026-05-07 19:16 43.06020 -77.42305 39936 ft 399 kts 263°
2026-05-07 19:17 43.05695 -77.49887 39937 ft 399 kts 263°
2026-05-07 19:17 43.05367 -77.57421 39936 ft 400 kts 263°
2026-05-07 19:18 43.05031 -77.65007 39935 ft 400 kts 263°
2026-05-07 19:18 43.04690 -77.72598 39935 ft 400 kts 263°
2026-05-07 19:19 43.04342 -77.80170 39934 ft 400 kts 263°
2026-05-07 19:19 43.03995 -77.87680 39934 ft 399 kts 263°
2026-05-07 19:20 43.03643 -77.95242 39929 ft 398 kts 263°
2026-05-07 19:20 43.03281 -78.02790 39923 ft 397 kts 263°
2026-05-07 19:21 43.02916 -78.10320 39922 ft 397 kts 263°
2026-05-07 19:21 43.02548 -78.17833 39922 ft 396 kts 263°
2026-05-07 19:22 43.02178 -78.25310 39923 ft 396 kts 263°
2026-05-07 19:22 43.01803 -78.32801 39925 ft 395 kts 263°
2026-05-07 19:23 43.01420 -78.40297 39924 ft 395 kts 263°
2026-05-07 19:23 43.01035 -78.47777 39924 ft 395 kts 263°
2026-05-07 19:24 43.00644 -78.55255 39933 ft 394 kts 263°
2026-05-07 19:24 43.00255 -78.62646 39934 ft 394 kts 263°
2026-05-07 19:25 42.99852 -78.70134 39933 ft 395 kts 263°
2026-05-07 19:25 42.99448 -78.77613 39933 ft 394 kts 263°
2026-05-07 19:26 42.99039 -78.85094 39933 ft 395 kts 263°
2026-05-07 19:26 42.98623 -78.92548 39934 ft 395 kts 263°
2026-05-07 19:27 42.98207 -78.99950 39933 ft 395 kts 263°
2026-05-07 19:27 42.97784 -79.07424 39933 ft 395 kts 263°
2026-05-07 19:28 42.97352 -79.14914 39681 ft 398 kts 263°
2026-05-07 19:28 42.97134 -79.18697 39440 ft 399 kts 263°
2026-05-07 19:28 42.96912 -79.22473 39195 ft 400 kts 263°
2026-05-07 19:29 42.96690 -79.26264 38950 ft 401 kts 263°
2026-05-07 19:29 42.96470 -79.30023 38706 ft 401 kts 263°
2026-05-07 19:29 42.96275 -79.33820 38460 ft 401 kts 264°
2026-05-07 19:29 42.96129 -79.37632 38211 ft 401 kts 265°
2026-05-07 19:30 42.95980 -79.41406 37965 ft 401 kts 265°
2026-05-07 19:30 42.95826 -79.45201 37731 ft 400 kts 265°
2026-05-07 19:30 42.95674 -79.48994 37468 ft 398 kts 265°
2026-05-07 19:30 42.95519 -79.52757 37090 ft 396 kts 264°
2026-05-07 19:31 42.95365 -79.56487 36719 ft 392 kts 264°
2026-05-07 19:31 42.95213 -79.60191 36342 ft 389 kts 264°
2026-05-07 19:31 42.95064 -79.63746 35980 ft 386 kts 264°
2026-05-07 19:31 42.94911 -79.67397 35604 ft 384 kts 264°
2026-05-07 19:32 42.94756 -79.71035 35229 ft 384 kts 264°
2026-05-07 19:32 42.94600 -79.74666 34854 ft 383 kts 264°
2026-05-07 19:32 42.94445 -79.78302 34479 ft 382 kts 264°
2026-05-07 19:32 42.94290 -79.81916 34108 ft 381 kts 264°
2026-05-07 19:33 42.94132 -79.85518 33738 ft 380 kts 264°
2026-05-07 19:33 42.93975 -79.89110 33364 ft 379 kts 264°
2026-05-07 19:33 42.93814 -79.92724 32995 ft 384 kts 264°
2026-05-07 19:33 42.93645 -79.96385 32584 ft 388 kts 264°
2026-05-07 19:34 42.93496 -79.99977 32174 ft 389 kts 264°
2026-05-07 19:34 42.93336 -80.03657 31754 ft 389 kts 264°
2026-05-07 19:34 42.93168 -80.07344 31332 ft 389 kts 264°
2026-05-07 19:34 42.93004 -80.11030 30910 ft 388 kts 264°
2026-05-07 19:35 42.92841 -80.14684 30488 ft 384 kts 264°
2026-05-07 19:35 42.92677 -80.18311 30064 ft 380 kts 264°
2026-05-07 19:35 42.92515 -80.21852 29643 ft 377 kts 264°
2026-05-07 19:35 42.92356 -80.25402 29217 ft 373 kts 264°
2026-05-07 19:36 42.92193 -80.28915 28785 ft 369 kts 264°
2026-05-07 19:36 42.92027 -80.32394 28363 ft 366 kts 264°
2026-05-07 19:36 42.91868 -80.35766 27947 ft 364 kts 264°
2026-05-07 19:36 42.91696 -80.39214 27522 ft 363 kts 264°
2026-05-07 19:37 42.91519 -80.42654 27090 ft 362 kts 264°
2026-05-07 19:37 42.91349 -80.46081 26663 ft 362 kts 264°
2026-05-07 19:37 42.91187 -80.49516 26247 ft 363 kts 265°
2026-05-07 19:37 42.91055 -80.52955 25821 ft 363 kts 265°
2026-05-07 19:38 42.90932 -80.56394 25395 ft 363 kts 265°
2026-05-07 19:38 42.90803 -80.59837 24972 ft 364 kts 265°
2026-05-07 19:38 42.90678 -80.63294 24548 ft 365 kts 265°
2026-05-07 19:38 42.90547 -80.66751 24122 ft 366 kts 265°
2026-05-07 19:39 42.90465 -80.68963 23851 ft 366 kts 265°
2026-05-07 19:39 42.90329 -80.72556 23411 ft 367 kts 265°
2026-05-07 19:39 42.90198 -80.76042 22984 ft 368 kts 265°
2026-05-07 19:39 42.90067 -80.79486 22566 ft 369 kts 265°
2026-05-07 19:40 42.89928 -80.83029 22135 ft 369 kts 265°
2026-05-07 19:40 42.89798 -80.86454 21712 ft 364 kts 265°
2026-05-07 19:40 42.89662 -80.89882 21287 ft 360 kts 265°
2026-05-07 19:40 42.89528 -80.93288 20859 ft 357 kts 265°
2026-05-07 19:41 42.89395 -80.96662 20427 ft 355 kts 265°
2026-05-07 19:41 42.89260 -81.00019 20004 ft 353 kts 265°
2026-05-07 19:41 42.89129 -81.03318 19583 ft 352 kts 265°
2026-05-07 19:41 42.88996 -81.06607 19165 ft 351 kts 265°
2026-05-07 19:42 42.88858 -81.09935 18739 ft 350 kts 265°
2026-05-07 19:42 42.88722 -81.13253 18316 ft 350 kts 265°
2026-05-07 19:42 42.88586 -81.16562 17891 ft 350 kts 265°
2026-05-07 19:42 42.88447 -81.19873 17467 ft 350 kts 265°
2026-05-07 19:43 42.88308 -81.23181 17041 ft 350 kts 265°
2026-05-07 19:43 42.88171 -81.26495 16619 ft 350 kts 265°
2026-05-07 19:43 42.88028 -81.29804 16187 ft 350 kts 265°
2026-05-07 19:43 42.87888 -81.33073 15778 ft 350 kts 265°
2026-05-07 19:44 42.87744 -81.36424 15352 ft 350 kts 265°
2026-05-07 19:44 42.87603 -81.39661 14939 ft 349 kts 266°
2026-05-07 19:44 42.87464 -81.42960 14518 ft 349 kts 266°
2026-05-07 19:44 42.87318 -81.46258 14082 ft 349 kts 265°
2026-05-07 19:45 42.87169 -81.49551 13669 ft 348 kts 266°
2026-05-07 19:45 42.87027 -81.52804 13250 ft 348 kts 266°
2026-05-07 19:45 42.86879 -81.56095 12825 ft 347 kts 266°
2026-05-07 19:45 42.86731 -81.59377 12401 ft 347 kts 266°
2026-05-07 19:46 42.86430 -81.62630 12021 ft 346 kts 256°
2026-05-07 19:46 42.85727 -81.65790 11776 ft 349 kts 252°
2026-05-07 19:46 42.84592 -81.68708 11520 ft 350 kts 237°
2026-05-07 19:46 42.83158 -81.71362 11402 ft 346 kts 235°
2026-05-07 19:47 42.81739 -81.73955 11281 ft 343 kts 235°
2026-05-07 19:47 42.80370 -81.76545 11163 ft 341 kts 237°
2026-05-07 19:47 42.79037 -81.79206 11039 ft 338 kts 238°
2026-05-07 19:47 42.77745 -81.81848 10914 ft 346 kts 238°
2026-05-07 19:48 42.76392 -81.84590 10804 ft 351 kts 238°
2026-05-07 19:48 42.75043 -81.87307 10687 ft 353 kts 238°
2026-05-07 19:48 42.73675 -81.90084 10561 ft 352 kts 238°
2026-05-07 19:48 42.72297 -81.92863 10448 ft 355 kts 237°
2026-05-07 19:49 42.70897 -81.95648 10320 ft 357 kts 237°
2026-05-07 19:49 42.69512 -81.98438 10194 ft 355 kts 237°
2026-05-07 19:49 42.68130 -82.01203 10097 ft 354 kts 237°
2026-05-07 19:49 42.66753 -82.03967 10048 ft 351 kts 237°
2026-05-07 19:50 42.65384 -82.06699 10031 ft 349 kts 237°
2026-05-07 19:50 42.64047 -82.09381 10028 ft 347 kts 237°
2026-05-07 19:50 42.62705 -82.12060 10022 ft 345 kts 237°
2026-05-07 19:50 42.61360 -82.14745 10017 ft 343 kts 237°
2026-05-07 19:51 42.60015 -82.17429 10019 ft 346 kts 237°
2026-05-07 19:51 42.58667 -82.20117 10022 ft 334 kts 237°
2026-05-07 19:51 42.57418 -82.22603 10011 ft 306 kts 237°
2026-05-07 19:51 42.56263 -82.24902 10007 ft 284 kts 237°
2026-05-07 19:52 42.55474 -82.26468 10008 ft 270 kts 238°
2026-05-07 19:52 42.54441 -82.28522 9850 ft 260 kts 237°
2026-05-07 19:52 42.53422 -82.30544 9593 ft 261 kts 238°
2026-05-07 19:52 42.52404 -82.32568 9344 ft 263 kts 238°
2026-05-07 19:53 42.51368 -82.34625 9092 ft 265 kts 237°
2026-05-07 19:53 42.50327 -82.36691 8850 ft 266 kts 238°
2026-05-07 19:53 42.49286 -82.38754 8599 ft 265 kts 237°
2026-05-07 19:53 42.48247 -82.40810 8352 ft 264 kts 237°
2026-05-07 19:54 42.47211 -82.42860 8100 ft 264 kts 238°
2026-05-07 19:54 42.46205 -82.44865 7860 ft 263 kts 238°
2026-05-07 19:54 42.45171 -82.46907 7610 ft 262 kts 237°
2026-05-07 19:54 42.44138 -82.48935 7360 ft 260 kts 237°
2026-05-07 19:55 42.43114 -82.50955 7106 ft 262 kts 237°
2026-05-07 19:55 42.42092 -82.52969 6864 ft 258 kts 238°
2026-05-07 19:55 42.41078 -82.54962 6607 ft 255 kts 238°
2026-05-07 19:55 42.40089 -82.56901 6354 ft 253 kts 237°
2026-05-07 19:56 42.38998 -82.58812 6100 ft 254 kts 230°
2026-05-07 19:56 42.37722 -82.60476 5848 ft 255 kts 225°
2026-05-07 19:56 42.36417 -82.62030 5607 ft 253 kts 224°
2026-05-07 19:56 42.35107 -82.63601 5353 ft 251 kts 224°
2026-05-07 19:57 42.33805 -82.65171 5100 ft 250 kts 225°
2026-05-07 19:57 42.32522 -82.66750 4849 ft 249 kts 225°
2026-05-07 19:57 42.31250 -82.68332 4600 ft 248 kts 225°
2026-05-07 19:57 42.29990 -82.69907 4351 ft 246 kts 227°
2026-05-07 19:58 42.28899 -82.71622 4193 ft 233 kts 235°
2026-05-07 19:58 42.27987 -82.73353 4110 ft 220 kts 238°
2026-05-07 19:58 42.27149 -82.75007 4084 ft 206 kts 238°
2026-05-07 19:58 42.26347 -82.76561 3884 ft 206 kts 237°
2026-05-07 19:59 42.25497 -82.78168 3689 ft 214 kts 236°
2026-05-07 19:59 42.24629 -82.79785 3484 ft 217 kts 241°
2026-05-07 19:59 42.24335 -82.81688 3263 ft 208 kts 282°
2026-05-07 19:59 42.24860 -82.83427 3164 ft 193 kts 295°
2026-05-07 20:00 42.25482 -82.84940 3094 ft 176 kts 299°
2026-05-07 20:00 42.26192 -82.86189 3073 ft 170 kts 320°
2026-05-07 20:00 42.27135 -82.87068 3140 ft 164 kts 322°
2026-05-07 20:00 42.28073 -82.87930 3178 ft 163 kts 322°
2026-05-07 20:01 42.29000 -82.88796 3234 ft 159 kts 321°
2026-05-07 20:01 42.29884 -82.89669 3126 ft 160 kts 321°
2026-05-07 20:01 42.30815 -82.90579 3108 ft 169 kts 320°
2026-05-07 20:01 42.31747 -82.91502 3016 ft 166 kts 320°
2026-05-07 20:02 42.32357 -82.92115 2831 ft 165 kts 320°
2026-05-07 20:02 42.33581 -82.93347 2436 ft 164 kts 320°
2026-05-07 20:02 42.34445 -82.94214 2307 ft 139 kts 320°
2026-05-07 20:02 42.35170 -82.94931 2107 ft 128 kts 320°
2026-05-07 20:03 42.35906 -82.95675 1824 ft 135 kts 319°
2026-05-07 20:03 42.36408 -82.96178 1685 ft 137 kts 320°
2026-05-07 20:03 42.37173 -82.96935 1474 ft 136 kts 318°
2026-05-07 20:03 42.37917 -82.97704 1287 ft 133 kts 319°
2026-05-07 20:04 42.38636 -82.98434 1143 ft 128 kts 319°
2026-05-07 20:04 42.39618 -82.99401 948 ft 132 kts 319°
2026-05-07 20:04 42.40112 -82.99918 815 ft 133 kts 317°
2026-05-07 20:04 42.40842 -83.00660 641 ft 120 kts 321°
2026-05-07 20:05 42.41351 -83.01176 634 ft 55 kts 324°
2026-05-07 20:05 42.41542 -83.01366 631 ft 24 kts 325°
2026-05-07 20:05 42.41697 -83.01411 635 ft 23 kts
2026-05-07 20:05 42.41755 -83.01361 627 ft 7 kts 93°
2026-05-07 20:06 42.41722 -83.01294 632 ft 11 kts 134°
2026-05-07 20:06 42.41641 -83.01208 629 ft 18 kts 146°
2026-05-07 20:06 42.41523 -83.01124 636 ft 19 kts 152°
2026-05-07 20:06 42.41411 -83.01025 634 ft 20 kts 146°
2026-05-07 20:07 42.41289 -83.00904 633 ft 23 kts 143°
2026-05-07 20:07 42.41150 -83.00765 635 ft 27 kts 143°
2026-05-07 20:07 42.40993 -83.00608 630 ft 28 kts 143°
2026-05-07 20:07 42.40898 -83.00512 630 ft 13 kts 141°
2026-05-07 20:08 42.40824 -83.00437 636 ft 14 kts 143°
2026-05-07 20:08 42.40741 -83.00359 633 ft 16 kts 151°
2026-05-07 20:08 42.40691 -83.00284 630 ft 6 kts 88°
2026-05-07 20:08 42.40704 -83.00241 629 ft 5 kts 40°
2026-05-07 20:09 42.40711 -83.00234 632 ft 1 kts 51°
2026-05-07 20:09 42.40712 -83.00226 629 ft 1 kts 90°
2026-05-07 20:09 42.40703 -83.00205 627 ft 2 kts 132°
2026-05-07 20:10 42.40703 -83.00204 627 ft 0 kts 132°